Home > Weather > Salzgitter > Past weeks

Flag for Germany Weather for the Past 2 Weeks in Salzgitter, Lower Saxony, Germany

Now
43 °F

Passing clouds.


Feels Like: 37 °F
Forecast: 38 / 46 °F
Wind: 9 mph from South

Location: Celle Airport

Current Time: Feb 8, 2016 at 2:00:06 AM

Latest Report: Feb 8, 2016 at 12:20 AM


Visibility: N/A

Pressure: 29.56 "Hg

Humidity: 66%

Dew point: 32 °F

Location of SalzgitterLocation

Historic Weather in Salzgitter — Graph

°F

Salzgitter Temperature Yesterday

Maximum temperature yesterday: 55 °F (at 1:20 PM)
Minimum temperature yesterday: 43 °F (at 11:20 PM)
Average temperature yesterday: 48 °F

High & Low Weather Summary for the Past Weeks

 TemperatureHumidityPressure
High55 °F (Feb 7, 1:20 PM)100% (Jan 24, 6:20 AM)30.51 "Hg (Jan 24, 6:20 AM)
Low36 °F (Jan 24, 6:20 AM)55% (Feb 7, 1:20 PM)29.47 "Hg (Feb 7, 10:20 AM)
Average45 °F83%29.97 "Hg
* Reported Jan 23 11:20 PM — Feb 7 11:20 PM, Salzgitter, Weather by CustomWeather, © 2016

Note: Actual official high and low records may vary slightly from our data, if they occured in-between our weather recording intervals... More about our weather records

Advertising

Salzgitter Weather History for the Previous 24 Hours

 ConditionsComfort  
Time TempWeatherWind HumidityBarometerVisibility
11:20 PM
Sun, Feb 7
43 °FPassing clouds.9 mph66%29.59 "HgN/A
10:20 PM45 °FPassing clouds.10 mph61%29.62 "HgN/A
9:20 PM46 °FPassing clouds.12 mph62%29.59 "HgN/A
8:20 PM46 °FPassing clouds.12 mph66%29.59 "HgN/A
7:20 PM46 °FPassing clouds.9 mph66%29.59 "HgN/A
6:20 PM48 °FPartly cloudy.12 mph66%29.56 "HgN/A
5:20 PM48 °FPartly cloudy.13 mph66%29.56 "HgN/A
4:20 PM50 °FPartly sunny.13 mph71%29.53 "HgN/A
3:20 PM50 °FLight rain. Partly sunny.14 mph71%29.53 "HgN/A
2:20 PM52 °FPartly sunny.17 mph67%29.50 "HgN/A
1:20 PM55 °FPartly sunny.15 mph55%29.50 "HgN/A
12:20 PM54 °FPartly sunny.9 mph58%29.50 "HgN/A
11:20 AM52 °FBroken clouds.13 mph58%29.50 "HgN/A
10:20 AM50 °FPartly sunny.13 mph62%29.47 "HgN/A
9:20 AM48 °FBroken clouds.9 mph66%29.50 "HgN/A
8:20 AM45 °FPartly sunny.12 mph71%29.50 "HgN/A
7:20 AM46 °FPassing clouds.12 mph66%29.50 "HgN/A
6:20 AM45 °FPassing clouds.7 mph71%29.53 "HgN/A
5:20 AM45 °FPassing clouds.8 mph71%29.53 "HgN/A
4:20 AM46 °FPassing clouds.9 mph66%29.56 "HgN/A
3:20 AM46 °FPassing clouds.9 mph71%29.56 "HgN/A
2:20 AM45 °FPassing clouds.6 mph71%29.59 "HgN/A
Weather by CustomWeather, © 2016

See weather overviewHow to use our weather pages